Regional Weather Roundup
Issued by NWS

Home | Current Version | Previous Version | Text Only | Print | Product List | Glossary Off
Versions: 1 2 3 4 5 6 7 8 9 10 11 12 13 14 15 16 17 18 19 20 21 22 23 24 25 26 27 28

000
ASUS45 KTFX 031110
RWRMT
MONTANA REGIONAL WEATHER ROUNDUP
NATIONAL WEATHER SERVICE GREAT FALLS MT
500 AM MDT TUE MAY 03 2016

NOTE: "FAIR" INDICATES FEW OR NO CLOUDS BELOW 12000 FEET WITH NO
SIGNIFICANT WEATHER AND/OR OBSTRUCTIONS TO VISIBILITY.

MTZ001>007-043-031200-
WEST OF THE DIVIDE

CITY           SKY/WX    TMP DP  RH WIND       PRES   REMARKS
KALISPELL      CLEAR     38  37  97 VRB3      30.11R
MISSOULA       CLEAR     43  35  73 CALM      30.16R
BUTTE          CLEAR     34  26  72 CALM      30.22R
MULLAN PASS    CLEAR     54  29  38 NW3       30.21R
$$

MTZ008-052>055-031200-
SOUTHWEST MONTANA

CITY           SKY/WX    TMP DP  RH WIND       PRES   REMARKS
BOZEMAN        CLEAR     33  28  81 E7        30.19R WCI  27
DILLON         CLEAR     39  28  64 S12       30.20R WCI  32
ENNIS          CLEAR     32  23  69 CALM      30.27R
$$

MTZ009-010-012-014-046-048-049-054-031200-
EAST SLOPES AND CENTRAL MONTANA

CITY           SKY/WX    TMP DP  RH WIND       PRES   REMARKS
CUT BANK       CLEAR     40  33  76 N5        30.09S
GREAT FALLS    CLEAR     40  33  76 S5        30.10S
MALMSTROM AFB  CLEAR     40  34  79 SW5       30.11S
HELENA         CLEAR     40  30  67 E5        30.15R
$$

MTZ011-013-016-021-045-047-050-051-031200-
NORTH CENTRAL MONTANA

CITY           SKY/WX    TMP DP  RH WIND       PRES   REMARKS
HAVRE          CLEAR     42  38  85 CALM      30.08S
LEWISTOWN      CLEAR     41  31  67 SE7       30.13S
N BAR RANCH      N/A     39  32  75 W7        30.17S
$$

MTZ017>020-022>027-061-062-031200-
NORTHEAST MONTANA

CITY           SKY/WX    TMP DP  RH WIND       PRES   REMARKS
GLASGOW        CLEAR     45  36  70 CALM      30.05R
JORDAN           N/A     45  40  82 W8        30.07R
SIDNEY         CLEAR     37  30  75 CALM      30.03S
WOLF POINT     CLEAR     41  36  82 CALM      30.05R
$$

MTZ028>42-056>058-031200-
SOUTHCENTRAL AND SOUTHEAST MONTANA

CITY           SKY/WX    TMP DP  RH WIND       PRES   REMARKS
BAKER          PTCLDY    39  33  79 CALM      30.06S
BILLINGS       PTCLDY    47  35  63 SW14      30.13S
LIVINGSTON     CLEAR     35  28  75 W3        30.18S
MILES CITY     CLEAR     48  40  73 W15       30.07R
$$

REGIONAL REPORTS...DAKOTAS

CITY           SKY/WX    TMP DP  RH WIND       PRES   REMARKS
WILLISTON      CLEAR     37  32  82 N3        30.02S
MINOT          CLEAR     55  33  43 SW10      29.95S
DICKINSON      CLOUDY    40  31  70 W5        30.01F
WATFORD CITY     N/A     39  36  87 SW6       30.03R
BISMARCK       CLOUDY    42  40  92 W3        30.00S
GRAND FORKS    CLOUDY    50  38  63 W13       29.87F
FARGO          PTCLDY    47  38  71 SW10      29.92F
BUFFALO SD       N/A     44  32  62 W5        30.00S
RAPID CITY     CLEAR     41  33  73 NW10      30.07S
$$

REGIONAL REPORTS...WYOMING/IDAHO/WASHINGTON

CITY           SKY/WX    TMP DP  RH WIND       PRES   REMARKS
GILLETTE       CLEAR     42  35  76 W12       30.13R
SHERIDAN       CLEAR     40  31  70 NE3       30.14R
BUFFALO WY       N/A    N/A N/A N/A MISG      30.17S
CODY           CLEAR     46  28  49 SW8       30.18S
YELLOWSTONE LA   N/A     26  21  81 CALM      30.34R
IDAHO FALLS    CLEAR     36  27  69 CALM      30.22S
SALMON         CLEAR     37  28  70 CALM      30.19R
BOISE          CLEAR     53  31  42 E6        30.10S
SPOKANE        CLEAR     53  42  66 E5        30.06R
$$

REGIONAL REPORTS...ALBERTA

CITY           SKY/WX    TMP DP  RH WIND       PRES   REMARKS
EDMONTON       PTCLDY    59  36  41 S8        29.95S
CALGARY        PTCLDY    46  32  57 VRB2      30.02S
LETHBRIDGE     CLEAR     45  30  57 SW9       30.03S
MEDICINE HAT   CLEAR     45  41  87 S3        30.04S
WATERTON GATE    N/A     50  32  50 SW12        N/A
CARDSTON         N/A     48  30  49 SW7         N/A
ONEFOUR          N/A     48  36  61 E6          N/A
$$

REGIONAL REPORTS...SASKATCHEWAN

CITY           SKY/WX    TMP DP  RH WIND       PRES   REMARKS
SWIFT CURRENT  CLEAR     50  37  62 SW12      30.04R
REGINA         PTCLDY    45  30  57 NW3       30.02R
SASKATOON      MOCLDY    45  39  81 E5        30.03S
CYPRESS HILLS    N/A     54  32  43 W3          N/A
VAL MARIE        N/A     36  34  93 NE5         N/A
ROCKGLEN         N/A     52  32  46 NW6         N/A
ASSINIBOIA       N/A     43  37  81 S6          N/A
$$




USA.gov is the U.S. government's official web portal to all federal, state and local government web resources and services.